This is the latest recevied weather packets stored in our database for station/object KC4JIR. If no packets are shown the sender has not sent any weather packets the latest 10 day(s).
| Time | Temp. | Humidity | Pressure | Rain* | Wind** | Luminosity | Snow |
|---|---|---|---|---|---|---|---|
| 1788467020 | 35.56° C | 55% | 1012.6 hPa | 0 mm | - | 476 W/m² | - |
| 1788466720 | 36.67° C | 56% | 1012.6 hPa | 0 mm | - | 498 W/m² | - |
| 1788466415 | 35.56° C | 58% | 1012.4 hPa | 0 mm | - | 522 W/m² | - |
| 1788466114 | 35.56° C | 56% | 1012.8 hPa | 0 mm | - | 547 W/m² | - |
| 1788465809 | 35.56° C | 56% | 1012.6 hPa | 0 mm | - | 547 W/m² | - |
| 1788465504 | 35° C | 57% | 1012.8 hPa | 0 mm | - | 540 W/m² | - |
| 1788465200 | 33.89° C | 61% | 1013.1 hPa | 0 mm | - | 534 W/m² | - |
| 1788464895 | 33.89° C | 63% | 1013.2 hPa | 0 mm | - | 96 W/m² | - |
| 1788464591 | 33.89° C | 61% | 1013.1 hPa | 0 mm | - | 84 W/m² | - |
| 1788464287 | 35.56° C | 58% | 1013.1 hPa | 0 mm | - | 142 W/m² | - |
| 1788463990 | 36.11° C | 59% | 1013.4 hPa | 0 mm | - | 147 W/m² | - |
| 1788463677 | 35.56° C | 57% | 1013.2 hPa | 0 mm | - | 625 W/m² | - |
| 1788463373 | 35.56° C | 57% | 1013.3 hPa | 0 mm | - | 613 W/m² | - |
| 1788463069 | 35° C | 58% | 1013.2 hPa | 0 mm | - | 599 W/m² | - |
| 1788462758 | 34.44° C | 58% | 1013.5 hPa | 0 mm | - | 593 W/m² | - |
| 1788462475 | 35.56° C | 59% | 1013.3 hPa | 0 mm | - | 104 W/m² | - |
| 1788462153 | 35.56° C | 56% | 1013.4 hPa | 0 mm | - | 629 W/m² | - |
| 1788461848 | 35° C | 57% | 1013.6 hPa | 0 mm | - | 675 W/m² | - |
| 1788461542 | 35.56° C | 58% | 1013.6 hPa | 0 mm | - | 698 W/m² | - |
| 1788461239 | 35.56° C | 56% | 1013.5 hPa | 0 mm | - | 189 W/m² | - |
| 1788460935 | 36.11° C | 57% | 1013.6 hPa | 0 mm | - | 721 W/m² | - |
| 1788460634 | 35.56° C | 56% | 1013.6 hPa | 0 mm | - | 680 W/m² | - |
| 1788460329 | 35° C | 56% | 1013.8 hPa | 0 mm | - | 668 W/m² | - |
| 1788460027 | 35° C | 59% | 1013.9 hPa | 0 mm | - | 719 W/m² | - |
| 1788459723 | 34.44° C | 60% | 1013.8 hPa | 0 mm | - | 667 W/m² | - |
* Rain latest hour (hover to see other rain measurements)
** Current wind speed in m/s (hover to see current wind gust speed)